Time,TemperatureF,DewpointF,PressureIn,WindDirection,WindDirectionDegrees,WindSpeedMPH,WindSpeedGustMPH,Humidity,HourlyPrecipIn,Conditions,Clouds,dailyrainin,SolarRadiationWatts/m^2,SoftwareType,DateUTC
2013-11-23 00:42:00,17.0,9.0,-100.00,SE,134,7.0,9.0,69,0.00,,,0.00,0.000000,,2013-11-23 07:42:00,
2013-11-23 00:52:00,17.0,9.0,-100.00,SE,134,7.0,9.0,69,0.00,,,0.00,0.000000,,2013-11-23 07:52:00,
2013-11-23 01:21:00,15.0,8.0,-100.00,SSE,147,8.0,9.0,74,0.00,,,0.00,0.000000,,2013-11-23 08:21:00,
2013-11-23 01:32:00,15.0,8.0,-100.00,SSE,147,8.0,9.0,74,0.00,,,0.00,0.000000,,2013-11-23 08:32:00,
2013-11-23 01:42:00,15.0,8.0,-100.00,SSE,147,8.0,9.0,74,0.00,,,0.00,0.000000,,2013-11-23 08:42:00,
2013-11-23 01:52:00,15.0,8.0,-100.00,SSE,147,8.0,9.0,74,0.00,,,0.00,0.000000,,2013-11-23 08:52:00,
2013-11-23 02:22:00,13.0,6.0,-100.00,SE,146,7.0,9.0,74,0.00,,,0.00,0.000000,,2013-11-23 09:22:00,
2013-11-23 02:33:00,13.0,6.0,-100.00,SE,146,7.0,9.0,74,0.00,,,0.00,0.000000,,2013-11-23 09:33:00,
2013-11-23 02:43:00,13.0,6.0,-100.00,SE,146,7.0,9.0,74,0.00,,,0.00,0.000000,,2013-11-23 09:43:00,
2013-11-23 02:54:00,13.0,6.0,-100.00,SE,146,7.0,9.0,74,0.00,,,0.00,0.000000,,2013-11-23 09:54:00,
2013-11-23 03:23:00,13.0,6.0,-100.00,SSE,149,8.0,10.0,73,0.00,,,0.00,0.000000,,2013-11-23 10:23:00,
2013-11-23 03:34:00,13.0,6.0,-100.00,SSE,149,8.0,10.0,73,0.00,,,0.00,0.000000,,2013-11-23 10:34:00,
2013-11-23 03:42:00,13.0,6.0,-100.00,SSE,149,8.0,10.0,73,0.00,,,0.00,0.000000,,2013-11-23 10:42:00,
2013-11-23 03:52:00,13.0,6.0,-100.00,SSE,149,8.0,10.0,73,0.00,,,0.00,0.000000,,2013-11-23 10:52:00,
2013-11-23 04:22:00,13.0,6.0,-100.00,SE,145,6.0,10.0,72,0.00,,,0.00,0.000000,,2013-11-23 11:22:00,
2013-11-23 04:33:00,13.0,6.0,-100.00,SE,145,6.0,10.0,72,0.00,,,0.00,0.000000,,2013-11-23 11:33:00,
2013-11-23 04:42:00,13.0,6.0,-100.00,SE,145,6.0,10.0,72,0.00,,,0.00,0.000000,,2013-11-23 11:42:00,
2013-11-23 04:52:00,13.0,6.0,-100.00,SE,145,6.0,10.0,72,0.00,,,0.00,0.000000,,2013-11-23 11:52:00,
2013-11-23 05:22:00,11.0,4.0,-100.00,SSE,164,5.0,9.0,72,0.00,,,0.00,0.000000,,2013-11-23 12:22:00,
2013-11-23 05:32:00,11.0,4.0,-100.00,SSE,164,5.0,9.0,72,0.00,,,0.00,0.000000,,2013-11-23 12:32:00,
2013-11-23 05:42:00,11.0,4.0,-100.00,SSE,164,5.0,9.0,72,0.00,,,0.00,0.000000,,2013-11-23 12:42:00,
2013-11-23 05:52:00,11.0,4.0,-100.00,SSE,164,5.0,9.0,72,0.00,,,0.00,0.000000,,2013-11-23 12:52:00,
2013-11-23 06:22:00,11.0,6.0,-100.00,SSE,147,8.0,9.0,78,0.00,,,0.00,0.000000,,2013-11-23 13:22:00,
2013-11-23 06:32:00,11.0,6.0,-100.00,SSE,147,8.0,9.0,78,0.00,,,0.00,0.000000,,2013-11-23 13:32:00,
2013-11-23 06:42:00,11.0,6.0,-100.00,SSE,147,8.0,9.0,78,0.00,,,0.00,0.000000,,2013-11-23 13:42:00,
2013-11-23 06:52:00,11.0,6.0,-100.00,SSE,147,8.0,9.0,78,0.00,,,0.00,0.000000,,2013-11-23 13:52:00,
2013-11-23 07:21:00,12.0,6.0,-100.00,SE,134,7.0,9.0,76,0.00,,,0.00,0.000000,,2013-11-23 14:21:00,
2013-11-23 07:32:00,12.0,6.0,-100.00,SE,134,7.0,9.0,76,0.00,,,0.00,0.000000,,2013-11-23 14:32:00,
2013-11-23 07:42:00,12.0,6.0,-100.00,SE,134,7.0,9.0,76,0.00,,,0.00,0.000000,,2013-11-23 14:42:00,
2013-11-23 07:52:00,12.0,6.0,-100.00,SE,134,7.0,9.0,76,0.00,,,0.00,0.000000,,2013-11-23 14:52:00,
2013-11-23 08:22:00,13.0,6.0,-100.00,SSE,161,5.0,9.0,72,0.00,,,0.00,24.000000,,2013-11-23 15:22:00,
2013-11-23 08:33:00,13.0,6.0,-100.00,SSE,161,5.0,9.0,72,0.00,,,0.00,24.000000,,2013-11-23 15:33:00,
2013-11-23 08:43:00,13.0,6.0,-100.00,SSE,161,5.0,9.0,72,0.00,,,0.00,24.000000,,2013-11-23 15:43:00,
2013-11-23 08:54:00,13.0,6.0,-100.00,SSE,161,5.0,9.0,72,0.00,,,0.00,24.000000,,2013-11-23 15:54:00,
2013-11-23 09:23:00,20.0,11.0,-100.00,SSE,156,5.0,7.0,68,0.00,,,0.00,162.000000,,2013-11-23 16:23:00,
2013-11-23 09:33:00,20.0,11.0,-100.00,SSE,156,5.0,7.0,68,0.00,,,0.00,162.000000,,2013-11-23 16:33:00,
2013-11-23 09:43:00,20.0,11.0,-100.00,SSE,156,5.0,7.0,68,0.00,,,0.00,162.000000,,2013-11-23 16:43:00,
2013-11-23 09:53:00,20.0,11.0,-100.00,SSE,156,5.0,7.0,68,0.00,,,0.00,162.000000,,2013-11-23 16:53:00,
2013-11-23 10:22:00,27.0,15.0,-100.00,SSE,158,6.0,7.0,60,0.00,,,0.00,288.000000,,2013-11-23 17:22:00,
2013-11-23 10:34:00,27.0,15.0,-100.00,SSE,158,6.0,7.0,60,0.00,,,0.00,288.000000,,2013-11-23 17:34:00,
2013-11-23 10:42:00,27.0,15.0,-100.00,SSE,158,6.0,7.0,60,0.00,,,0.00,288.000000,,2013-11-23 17:42:00,
2013-11-23 10:52:00,27.0,15.0,-100.00,SSE,158,6.0,7.0,60,0.00,,,0.00,288.000000,,2013-11-23 17:52:00,
2013-11-23 11:22:00,35.0,16.0,-100.00,NE,52,2.0,7.0,46,0.00,,,0.00,375.000000,,2013-11-23 18:22:00,
2013-11-23 11:33:00,35.0,16.0,-100.00,NE,52,2.0,7.0,46,0.00,,,0.00,375.000000,,2013-11-23 18:33:00,
2013-11-23 11:42:00,35.0,16.0,-100.00,NE,52,2.0,7.0,46,0.00,,,0.00,375.000000,,2013-11-23 18:42:00,
2013-11-23 11:52:00,35.0,16.0,-100.00,NE,52,2.0,7.0,46,0.00,,,0.00,375.000000,,2013-11-23 18:52:00,
2013-11-23 12:21:00,38.0,13.0,-100.00,SSW,195,5.0,6.0,35,0.00,,,0.00,415.000000,,2013-11-23 19:21:00,
2013-11-23 12:32:00,38.0,13.0,-100.00,SSW,195,5.0,6.0,35,0.00,,,0.00,415.000000,,2013-11-23 19:32:00,
2013-11-23 12:42:00,38.0,13.0,-100.00,SSW,195,5.0,6.0,35,0.00,,,0.00,415.000000,,2013-11-23 19:42:00,
2013-11-23 12:52:00,38.0,13.0,-100.00,SSW,195,5.0,6.0,35,0.00,,,0.00,415.000000,,2013-11-23 19:52:00,
2013-11-23 13:21:00,41.0,14.0,-100.00,WNW,292,3.0,6.0,33,0.00,,,0.00,406.000000,,2013-11-23 20:21:00,
2013-11-23 13:32:00,41.0,14.0,-100.00,WNW,292,3.0,6.0,33,0.00,,,0.00,406.000000,,2013-11-23 20:32:00,
2013-11-23 13:42:00,41.0,14.0,-100.00,WNW,292,3.0,6.0,33,0.00,,,0.00,406.000000,,2013-11-23 20:42:00,
2013-11-23 13:52:00,41.0,14.0,-100.00,WNW,292,3.0,6.0,33,0.00,,,0.00,406.000000,,2013-11-23 20:52:00,
2013-11-23 14:21:00,45.0,16.0,-100.00,NW,309,3.0,5.0,31,0.00,,,0.00,348.000000,,2013-11-23 21:21:00,
2013-11-23 14:33:00,45.0,16.0,-100.00,NW,309,3.0,5.0,31,0.00,,,0.00,348.000000,,2013-11-23 21:33:00,
2013-11-23 14:43:00,45.0,16.0,-100.00,NW,309,3.0,5.0,31,0.00,,,0.00,348.000000,,2013-11-23 21:43:00,
2013-11-23 14:53:00,45.0,16.0,-100.00,NW,309,3.0,5.0,31,0.00,,,0.00,348.000000,,2013-11-23 21:53:00,
2013-11-23 15:23:00,45.0,13.0,-100.00,SSE,163,6.0,9.0,27,0.00,,,0.00,247.000000,,2013-11-23 22:23:00,
2013-11-23 15:33:00,45.0,13.0,-100.00,SSE,163,6.0,9.0,27,0.00,,,0.00,247.000000,,2013-11-23 22:33:00,
2013-11-23 15:43:00,45.0,13.0,-100.00,SSE,163,6.0,9.0,27,0.00,,,0.00,247.000000,,2013-11-23 22:43:00,
2013-11-23 15:52:00,45.0,13.0,-100.00,SSE,163,6.0,9.0,27,0.00,,,0.00,247.000000,,2013-11-23 22:52:00,
2013-11-23 16:21:00,44.0,13.0,-100.00,SE,138,3.0,7.0,28,0.00,,,0.00,118.000000,,2013-11-23 23:21:00,
2013-11-23 16:33:00,44.0,13.0,-100.00,SE,138,3.0,7.0,28,0.00,,,0.00,118.000000,,2013-11-23 23:33:00,
2013-11-23 16:42:00,44.0,13.0,-100.00,SE,138,3.0,7.0,28,0.00,,,0.00,118.000000,,2013-11-23 23:42:00,
2013-11-23 16:53:00,44.0,13.0,-100.00,SE,138,3.0,7.0,28,0.00,,,0.00,118.000000,,2013-11-23 23:53:00,
2013-11-23 17:21:00,39.0,14.0,-100.00,ENE,64,2.0,4.0,36,0.00,,,0.00,11.000000,,2013-11-24 00:21:00,
2013-11-23 17:32:00,39.0,14.0,-100.00,ENE,64,2.0,4.0,36,0.00,,,0.00,11.000000,,2013-11-24 00:32:00,
2013-11-23 17:42:00,39.0,14.0,-100.00,ENE,64,2.0,4.0,36,0.00,,,0.00,11.000000,,2013-11-24 00:42:00,
2013-11-23 17:52:00,39.0,14.0,-100.00,ENE,64,2.0,4.0,36,0.00,,,0.00,11.000000,,2013-11-24 00:52:00,
2013-11-23 18:22:00,33.0,13.0,-100.00,North,352,3.0,4.0,44,0.00,,,0.00,0.000000,,2013-11-24 01:22:00,
2013-11-23 18:32:00,33.0,13.0,-100.00,North,352,3.0,4.0,44,0.00,,,0.00,0.000000,,2013-11-24 01:32:00,
2013-11-23 18:42:00,33.0,13.0,-100.00,North,352,3.0,4.0,44,0.00,,,0.00,0.000000,,2013-11-24 01:42:00,
2013-11-23 18:52:00,33.0,13.0,-100.00,North,352,3.0,4.0,44,0.00,,,0.00,0.000000,,2013-11-24 01:52:00,
2013-11-23 19:42:00,30.0,15.0,-100.00,NE,55,1.0,7.0,54,0.00,,,0.00,0.000000,,2013-11-24 02:42:00,
2013-11-23 19:52:00,30.0,15.0,-100.00,NE,55,1.0,7.0,54,0.00,,,0.00,0.000000,,2013-11-24 02:52:00,
2013-11-23 20:22:00,26.0,17.0,-100.00,SE,124,4.0,7.0,67,0.00,,,0.00,0.000000,,2013-11-24 03:22:00,
2013-11-23 20:33:00,26.0,17.0,-100.00,SE,124,4.0,7.0,67,0.00,,,0.00,0.000000,,2013-11-24 03:33:00,
2013-11-23 20:43:00,26.0,17.0,-100.00,SE,124,4.0,7.0,67,0.00,,,0.00,0.000000,,2013-11-24 03:43:00,
2013-11-23 20:53:00,26.0,17.0,-100.00,SE,124,4.0,7.0,67,0.00,,,0.00,0.000000,,2013-11-24 03:53:00,
2013-11-23 21:23:00,24.0,16.0,-100.00,SE,134,7.0,9.0,71,0.00,,,0.00,0.000000,,2013-11-24 04:23:00,
2013-11-23 21:33:00,24.0,16.0,-100.00,SE,134,7.0,9.0,71,0.00,,,0.00,0.000000,,2013-11-24 04:33:00,
2013-11-23 21:42:00,24.0,16.0,-100.00,SE,134,7.0,9.0,71,0.00,,,0.00,0.000000,,2013-11-24 04:42:00,
2013-11-23 21:53:00,24.0,16.0,-100.00,SE,134,7.0,9.0,71,0.00,,,0.00,0.000000,,2013-11-24 04:53:00,
2013-11-23 22:22:00,20.0,12.0,-100.00,South,174,4.0,8.0,71,0.00,,,0.00,0.000000,,2013-11-24 05:22:00,
2013-11-23 22:33:00,20.0,12.0,-100.00,South,174,4.0,8.0,71,0.00,,,0.00,0.000000,,2013-11-24 05:33:00,
2013-11-23 22:43:00,20.0,12.0,-100.00,South,174,4.0,8.0,71,0.00,,,0.00,0.000000,,2013-11-24 05:43:00,
2013-11-23 22:53:00,20.0,12.0,-100.00,South,174,4.0,8.0,71,0.00,,,0.00,0.000000,,2013-11-24 05:53:00,
2013-11-23 23:21:00,21.0,15.0,-100.00,SSE,150,7.0,11.0,76,0.00,,,0.00,0.000000,,2013-11-24 06:21:00,
2013-11-23 23:32:00,21.0,15.0,-100.00,SSE,150,7.0,11.0,76,0.00,,,0.00,0.000000,,2013-11-24 06:32:00,
2013-11-23 23:42:00,21.0,15.0,-100.00,SSE,150,7.0,11.0,76,0.00,,,0.00,0.000000,,2013-11-24 06:42:00,
2013-11-23 23:52:00,21.0,15.0,-100.00,SSE,150,7.0,11.0,76,0.00,,,0.00,0.000000,,2013-11-24 06:52:00,